Skip Navigation Linkswww.weather.gov 
NOAA logo - Click to go to the NOAA homepage National Weather Service Forecast Office   NWS logo - Click to go to the NWS homepage    
Los Angeles, California
navigation bar decoration      
spacer
Printer Friendly  |   Go Back  |  Version: Current   1   2   3   4   5   6   7   8   9   10   |  Font:  A A A  |  
This version is NOT current and may no longer be valid!

HOURLY WEATHER ROUNDUP
 
 ASUS46 KSTO 300204
RWRCA

NORTHERN AND CENTRAL CA REGIONAL WEATHER ROUNDUP
NATIONAL WEATHER SERVICE SACRAMENTO CA
700 PM PDT SUN MAR 29 2015

NOTE: FAIR INDICATES FEW OR NO CLOUDS BELOW 12,000 FEET WITH NO
SIGNIFICANT WEATHER AND/OR OBSTRUCTIONS TO VISIBILITY.

CAZ001-003-300300-
NORTHWEST AREA

CITY SKY/WX TMP DP RH WIND PRES REMARKS
CRESCENT CITY CLEAR 54 50 86 NW8 30.18S
UKIAH CLEAR 75 44 33 N6 30.02R
$$

CAZ006-505>513-300300-
BAY AREA

CITY SKY/WX TMP DP RH WIND PRES REMARKS
SANTA ROSA PTCLDY 69 48 47 SE8 29.98S
SAN RAFAEL N/A 78 MM MM MISG
NAPA CLEAR 66 51 58 S8 30.00R
CONCORD CLEAR 76 46 34 SW8 29.99S
OAKLAND CITY N/A 74 MM MM MISG
OAKLAND PTCLDY 63 51 65 NW8 30.01F
SAN FRAN CITY N/A 59 MM 69 MISG
SAN FRAN ARPT PTCLDY 61 50 67 W21 30.01F
LIVERMORE CLEAR 76 44 32 W8 29.99S
HAYWARD CLEAR 68 49 50 W8 30.01S
REDWOOD CITY N/A MM MM MM MISG
MOFFETT ARPT CLEAR 66 53 63 N9 30.02R
SAN JOSE ARPT PTCLDY 69 51 52 NW13 30.01R
$$
CAZ034-037-514>518-300300-
CENTRAL COAST

CITY SKY/WX TMP DP RH WIND PRES REMARKS
WATSONVILLE CLEAR 60 53 77 S8 30.03S
SALINAS CLEAR 65 49 56 W9 30.03S
MONTEREY CLEAR 60 49 66 NW6 30.05S
SAN LUIS OBISP CLEAR 61 49 64 NW14 29.98S
SANTA MARIA CLEAR 62 50 64 NW8 30.00S
$$
CAZ015-016-300300-
NORTHERN SACRAMENTO VALLEY

CITY SKY/WX TMP DP RH WIND PRES REMARKS
REDDING PTCLDY 80 43 26 S3 29.95S
RED BLUFF CLEAR 81 40 23 CALM 29.95F
OROVILLE CLEAR 80 40 23 S6 29.97S
$$
CAZ016>018-300300-
SOUTHERN SACRAMENTO VALLEY

CITY SKY/WX TMP DP RH WIND PRES REMARKS
AUBURN CLEAR 73 39 29 CALM 30.03F
LINCOLN FAIR 73 46 38 E6 29.96S
MARYSVILLE CLEAR 80 41 24 E3 29.95F
SAC INTL ARPT PTCLDY 80 44 27 CALM 29.95F
MATHER AIRPORT CLEAR 81 41 24 CALM 29.97S
DOWNTOWN SAC N/A 83 MM MM MISG
SAC EXEC ARPT CLEAR 77 50 38 SW8 29.96F
VACAVILLE CLEAR 79 44 28 SW8 29.98S
$$
CAZ019>021-300300-
SAN JOAQUIN VALLEY

CITY SKY/WX TMP DP RH WIND PRES REMARKS
STOCKTON CLEAR 80 40 23 NW8 29.97S
MODESTO CLEAR 80 35 19 NW9 29.97S
MERCED CLEAR 80 41 24 N8 29.98R
LEMOORE CLEAR 80 34 19 N9 29.98R
FRESNO PTCLDY 81 40 23 NW10 29.98R
HANFORD CLEAR 83 41 22 NW8 29.97S
PORTERVILLE CLEAR 77 39 25 W7 29.98F
BAKERSFIELD CLEAR 81 32 17 NW8 29.97S
$$
CAZ011-012-071-300300-
NORTHERN MOUNTAINS

CITY SKY/WX TMP DP RH WIND PRES REMARKS
YREKA CLEAR 68 42 38 W5 30.11F
MOUNT SHASTA PTCLDY 64 32 30 W5 30.12F
ALTURAS CLEAR 63 24 22 N7 30.14S
$$
CAZ011-012-071-300300-
SIERRA NEVADA MTNS

CITY SKY/WX TMP DP RH WIND PRES REMARKS
BLUE CANYON CLEAR 62 36 37 W5 30.20R
TRUCKEE PTCLDY 63 32 31 W10 30.19S
TAHOE VLY ARPT CLEAR 58 33 39 CALM 30.20R
MAMMOTH LAKES FAIR 59 21 23 SW12 30.23S
$$



Webmaster
US Dept of Commerce
National Oceanic and Atmospheric Administration
National Weather Service
Los Angeles/Oxnard Weather Forecast Office
520 North Elevar Street
Oxnard, CA 93030

Tel: (805) 988-6610

Disclaimer
Information Quality
Credits
Glossary
Organization
Privacy Policy
Freedom of Information Act
About Us
Career Opportunities